Satellite-Ground Cal/Val Site Overpasses Predictions

Prediction of Satellite NPP Overpassing Cal/Val Site: Antarctic Dome C

Ground Cal/Val Site Location: Latitude: -75.10, Longitude: 123.35; Satellite-Ground Site NADIR distance within 100 km.

Table of predicted overpasses for the next 14.0 days since TLE Epoch: 9/27/2014
Interval Starting Time Ending Time Minimum Distance Time Minimum Distance (km)
1 09/28/2014 15:16:16 09/28/2014 15:16:19 09/28/2014 15:16:18 98.99
2 09/29/2014 14:57:14 09/29/2014 14:57:43 09/29/2014 14:57:29 12.64
3 10/01/2014 07:40:04 10/01/2014 07:40:33 10/01/2014 07:40:18 3.40
4 10/04/2014 15:03:31 10/04/2014 15:04:00 10/04/2014 15:03:45 24.09
5 10/05/2014 14:44:49 10/05/2014 14:45:05 10/05/2014 14:44:57 83.05
6 10/06/2014 07:46:21 10/06/2014 07:46:49 10/06/2014 07:46:35 34.17
7 10/07/2014 07:27:37 10/07/2014 07:27:55 10/07/2014 07:27:46 75.84
8 10/09/2014 15:09:51 10/09/2014 15:10:14 10/09/2014 15:10:03 60.86
9 10/10/2014 14:51:00 10/10/2014 14:51:26 10/10/2014 14:51:13 48.32
